Edinburgh Airport

Airport
ICAO code: 
EGPH
IATA Code: 
EDI
Summary
ICAO Region: 
EUR
Territory: 
Location: 
Turnhouse, Scotland
Serving: 
Edinburgh
Elevation: 
136 ft
Coordinates: 
Aerial View: 
55° 56' 56.886" N, 3° 21' 30.591" W
Metar
Observation
EGPH 271920Z 22012KT 9999 FEW036 16/07 Q1011
Station
Edinburgh Airport
Date/Time
2022-06-27 19:20:00
Wind direction
220°
Wind speed
12 kts
Lowest cloud amount
few clouds
Temperature
16°C
Dew point
7°C
Humidity
55%
QNH
1011 hPa
Weather condition
n/a

Description

Domestic and international airport serving the Scottish City of Edinburgh and the surrounding region.

Climatology

Temperate Marine climate/Oceanic climate (Köppen climate classification Cfb). Moderately cool summer and comparatively warm winter with a temperature range of only 14°C. Prevailing south-westerly winds from the Atlantic Ocean.

Runways

Designator Length Width Surface Rops
8/26 799 46 ASP No/No
12/30 1747 46 ASP Yes/Yes
6/24 2560 46 ASP Yes/Yes
Airport map: 
Aerial View: 

SKYbrary Partners:

Safety knowledge contributed by: